User: anonymous   Login
Location: Notre Dame Regional High School Observatory
(37.3056°N, 89.6097°W)
Time: 20:23:27
(UTC-05:00)
Language:

ATLAS 3B R/B - Orbit

View from above orbital plane
View from above orbital plane
View from above satellite
View from above satellite

Ground track
Ground track

The orbit data is extracted from the following two-line orbital elements,

1 28538U 05004B   15215.04781432 0.00000000  00000-0  00000-0 0    01
2 28538  63.8258 221.5702 0194000 223.7713 136.2287 13.43066087    05
Epoch (UTC): 03 August 2015 01:08:51
Eccentricity: 0.0194000
inclination: 63.8258°
perigee height: 953 km
apogee height: 1243 km
right ascension of ascending node: 221.5702°
argument of perigee: 223.7713°
revolutions per day: 13.43066087
mean anomaly at epoch: 136.2287°
orbit number at epoch: 0

The dashed part of the orbit path shows where the satellite is in the earth's shadow,  

DLR